Flag for U.S.A. Weather past 2 weeks in New Orleans, Louisiana, U.S.A.

Now
69 °F

Sunny.


Feels Like: 69 °F
Forecast: 63 / 77 °F
Wind: 14 mph from Northeast

Location: Lakefront Airport

Current Time: Apr 21, 2015 at 9:06:31 AM

Latest Report: Apr 21, 2015 at 7:53 AM


Visibility: 10 mi

Pressure: 30.03 "Hg

Humidity: 47%

Dew point: 48 °F

Location of New OrleansLocation

Historic Weather in New Orleans — Graph

°F

New Orleans temperature yesterday

Maximum temperature yesterday: 79 °F (at 2:53 PM)
Minimum temperature yesterday: 71 °F (at 11:53 PM)
Average temperature yesterday: 76 °F

Past Weeks' High & Low Weather Summary

 TemperatureHumidityPressure
High87 °F (Apr 8, 2:53 PM)90% (Apr 14, 4:53 AM)30.14 "Hg (Apr 14, 4:53 AM)
Low68 °F (Apr 14, 9:53 PM)44% (Apr 21, 12:53 AM)29.74 "Hg (Apr 19, 6:53 AM)
Average76 °F76%29.98 "Hg
* Reported Apr 6 7:53 AM — Apr 21 7:53 AM, New Orleans, Weather by CustomWeather, © 2015

Note: Actual official high and low records may vary slightly from our data, if they occured in-between our weather recording intervals... More about our weather records

Advertising

New Orleans weather history for previous 24 hours

 ConditionsComfort  
Time TempWeatherWind HumidityBarometerVisibility
7:53 AM
Tue, Apr 21
69 °FSunny.14 mph47%30.03 "Hg10 mi
6:53 AM69 °FClear.15 mph47%30.01 "Hg10 mi
5:53 AM69 °FClear.17 mph47%29.98 "Hg10 mi
4:53 AM70 °FClear.15 mph47%29.97 "Hg10 mi
3:53 AM70 °FClear.15 mph46%29.95 "Hg10 mi
2:53 AM70 °FClear.15 mph47%29.95 "Hg10 mi
1:53 AM70 °FClear.14 mph49%29.95 "Hg10 mi
12:53 AM71 °FClear.14 mph44%29.95 "Hg10 mi
11:53 PM
Mon, Apr 20
71 °FClear.13 mph47%29.95 "Hg10 mi
10:53 PM72 °FClear.16 mph48%29.96 "Hg10 mi
9:53 PM73 °FClear.15 mph48%29.95 "Hg10 mi
8:53 PM74 °FClear.13 mph46%29.93 "Hg10 mi
7:53 PM74 °FSunny.15 mph50%29.90 "Hg10 mi
6:53 PM75 °FSunny.14 mph50%29.88 "Hg10 mi
5:53 PM76 °FSunny.15 mph52%29.85 "Hg10 mi
4:53 PM77 °FSunny.14 mph50%29.83 "Hg10 mi
3:53 PM78 °FSunny.15 mph46%29.83 "Hg10 mi
2:53 PM79 °FSunny.20 mph48%29.83 "Hg10 mi
1:53 PM78 °FSunny.16 mph50%29.83 "Hg10 mi
12:53 PM77 °FSunny.16 mph56%29.85 "Hg10 mi
11:53 AM77 °FSunny.16 mph58%29.87 "Hg10 mi
10:53 AM76 °FSunny.16 mph56%29.88 "Hg10 mi
9:53 AM76 °FSunny.12 mph58%29.86 "Hg10 mi
Weather by CustomWeather, © 2015

See weather overviewHow to use our weather pages